Location: Unspecified
(0.0000°N, 0.0000°E)
Time: 17:00:07
(UTC+00:00)

Amateur Radio Satellites - All Passes

Search period start: 14 February 2016 16:30
Search period end: 15 February 2016 16:30
Location: Unspecified, 0.0000°N, 0.0000°E

Satellite Date Start Highest point End Downlink Frequencies (MHz)
Time Altitude Azimuth
SRMSAT 14 Feb 16:31:40 16:37:34 64° 201° (SSW) 16:43:28 437.500
CUBESAT XI-V 14 Feb 16:34:33 16:37:51 19° 102° (ESE) 16:41:07 437.345
JUGNU 14 Feb 16:37:09 16:41:30 21° 196° (SSW) 16:45:53 437.505
HORYU 2 14 Feb 16:50:25 16:53:56 23° 257° (WSW) 16:57:26 437.375
M-CUBED/EXP-1 PRIME 14 Feb 16:58:32 16:59:36 11° 252° (WSW) 17:00:37 437.505
Cosmos 2504 14 Feb 16:58:46 17:05:45 36° 268° (W) 17:12:23 435.465 / 435.565
AUBIESAT-1 14 Feb 17:03:29 17:04:49 11° 252° (WSW) 17:06:07 437.475
O/OREOS (USA 219) 14 Feb 17:04:18 17:07:19 17° 75° (ENE) 17:10:21 437.305
AIST 2 14 Feb 17:08:20 17:10:54 16° 292° (WNW) 17:13:27 435.215
LilacSat-2 14 Feb 17:20:35 17:23:18 19° 79° (E) 17:26:01 437.200
STRAND 1 14 Feb 17:42:06 17:42:29 10° 103° (ESE) 17:42:52 437.568
CUTE-I 14 Feb 17:53:05 17:58:23 73° 77° (ENE) 18:03:40 437.470
Cubesat XI-IV 14 Feb 18:08:26 18:13:45 75° 258° (WSW) 18:19:02 437.490
CUBESAT XI-V 14 Feb 18:11:36 18:14:57 20° 282° (WNW) 18:18:19 437.345
SRMSAT 14 Feb 18:22:08 18:26:57 25° 197° (SSW) 18:31:48 437.500
DOVE 4 14 Feb 18:25:31 18:28:52 17° 79° (E) 18:32:09 437.250
BRITE-PL 14 Feb 18:27:37 18:33:16 86° 258° (WSW) 18:38:58 437.365/2234.400
JUGNU 14 Feb 18:29:36 18:31:19 11° 187° (S) 18:33:03 437.505
HO-68 14 Feb 18:38:07 18:41:16 13° 75° (ENE) 18:44:25 435.675
O/OREOS (USA 219) 14 Feb 18:43:02 18:46:27 21° 255° (WSW) 18:49:52 437.305
LilacSat-2 14 Feb 18:55:32 18:57:22 13° 258° (WSW) 18:59:11 437.200
PRISM 14 Feb 19:06:36 19:10:07 27° 102° (ESE) 19:13:38 437.425
GOMX 1 14 Feb 19:07:36 19:13:04 64° 259° (WSW) 19:18:24 467.674
CUTE 1.7 + AOD 2 14 Feb 19:07:44 19:10:05 15° 78° (ENE) 19:12:25 437.475
STRAND 1 14 Feb 19:16:28 19:21:21 46° 283° (WNW) 19:26:16 437.568
PHONESAT 2.4 14 Feb 19:22:00 19:25:09 44° 317° (NW) 19:28:17 2401.200-2431.200
AO-85 14 Feb 19:36:47 19:41:12 86° 72° (ENE) 19:45:15 145.980
PCSat 14 Feb 19:37:33 19:42:05 27° 71° (ENE) 19:46:35 145.827
CANX-2 14 Feb 19:51:50 19:56:02 84° 77° (ENE) 20:00:13 2200.000
CUBEBUG 2 14 Feb 19:52:33 19:54:54 14° 79° (E) 19:57:13 437.445
Cosmos 2499 14 Feb 19:53:14 19:58:20 20° 85° (E) 20:03:14 435.465 / 435.565
DOVE 4 14 Feb 20:01:45 20:06:17 30° 257° (WSW) 20:10:43 437.250
GONETS M04 14 Feb 20:07:20 20:16:11 88° 87° (E) 20:25:04
SRMSAT 14 Feb 20:14:21 20:16:52 13° 189° (S) 20:19:24 437.500
COMPASS 1 14 Feb 20:15:06 20:19:14 71° 79° (ENE) 20:23:20 437.405
CINEMA 3 14 Feb 20:18:05 20:22:53 61° 258° (WSW) 20:27:28 145.822/145.860
HO-68 14 Feb 20:21:33 20:28:37 62° 256° (WSW) 20:35:39 435.675
ZACube-1 14 Feb 20:24:17 20:26:54 16° 79° (E) 20:29:28 437.345
FUNcube-1 14 Feb 20:30:15 20:33:12 18° 79° (E) 20:36:06 145.935
AAUSAT CUBESAT 2 14 Feb 20:38:44 20:42:49 64° 258° (WSW) 20:46:54 437.432
SEEDS 14 Feb 20:39:04 20:42:48 32° 259° (WSW) 20:46:31 437.485
CUTE 1.7 + AOD 2 14 Feb 20:42:31 20:45:40 21° 258° (WSW) 20:48:49 437.475
PRISM 14 Feb 20:44:38 20:45:11 10° 282° (WNW) 20:45:44 437.425
Oscar 11 14 Feb 20:53:50 20:58:05 62° 78° (ENE) 21:02:19 145.826/435.025
RS-15 14 Feb 21:05:43 21:18:00 72° 70° (ENE) 21:29:57 29.354- 29.394
DELFI C3 14 Feb 21:11:40 21:15:30 48° 79° (ENE) 21:19:19 145.870
UWE-3 14 Feb 21:16:40 21:20:56 50° 258° (WSW) 21:25:05 435.000/436.395/437.385
PCSat 14 Feb 21:21:23 21:25:11 20° 250° (WSW) 21:29:01 145.827
CUBEBUG 2 14 Feb 21:27:41 21:31:17 24° 257° (WSW) 21:34:49 437.445
UNISAT 6 14 Feb 21:30:52 21:34:43 27° 102° (ESE) 21:38:39 437.425
HUMSAT D 14 Feb 21:32:47 21:36:24 30° 79° (E) 21:40:00 437.325/437.525
AIST 1 14 Feb 21:44:12 21:48:24 62° 267° (W) 21:52:36
Cosmos 2499 14 Feb 21:44:16 21:51:09 39° 267° (W) 21:57:44 435.465 / 435.565
ZACube-1 14 Feb 21:59:47 22:02:57 20° 258° (WSW) 22:06:03 437.345
FUNcube-1 14 Feb 22:06:22 22:09:12 17° 258° (WSW) 22:11:58 145.935
JUGNU 14 Feb 22:08:00 22:11:34 16° 167° (SSE) 22:15:09 437.505
ANTELSAT 14 Feb 22:15:03 22:19:33 71° 281° (WNW) 22:24:11 437.575/2403.000
POLYITAN 1 14 Feb 22:18:06 22:21:04 19° 102° (ESE) 22:24:03 437.675
QB50P2 14 Feb 22:18:24 22:21:28 20° 102° (ESE) 22:24:32 145.880/145.840
TIGRISAT 14 Feb 22:20:06 22:24:34 64° 282° (WNW) 22:29:10 435.000
VELOX 1 14 Feb 22:28:00 22:31:30 22° 78° (ENE) 22:34:58 145.980
UKube-1 14 Feb 22:29:23 22:32:35 20° 78° (ENE) 22:35:46 .
AISAT 14 Feb 22:44:54 22:49:08 42° 78° (ENE) 22:53:20 437.250
POPSAT HIP 1 14 Feb 22:45:44 22:49:46 46° 102° (ESE) 22:53:50 437.405
DUCHIFAT 1 14 Feb 22:46:07 22:50:04 42° 102° (ESE) 22:54:04 145.980
NANOSAT C BR1 14 Feb 22:47:02 22:51:04 46° 102° (ESE) 22:55:09 145.865
CUBEBUG 1 14 Feb 22:49:15 22:53:20 36° 78° (ENE) 22:57:23 437.445
DX 1 14 Feb 22:49:50 22:54:06 51° 78° (ENE) 22:58:20 434.975-435.025
QB50P1 14 Feb 22:57:41 23:01:53 73° 102° (ESE) 23:06:07 145.935-145.965
UNISAT 6 14 Feb 23:08:55 23:11:11 14° 281° (WNW) 23:13:29 437.425
RS-15 14 Feb 23:22:12 23:30:06 20° 248° (WSW) 23:37:57 29.354- 29.394
BUGSAT 1 14 Feb 23:24:50 23:28:49 69° 101° (E) 23:32:51 437.445
ESTCUBE 1 14 Feb 23:28:00 23:32:15 41° 258° (WSW) 23:36:30 437.505/2401.250
50 SAT 14 Feb 23:30:17 23:33:23 26° 258° (WSW) 23:36:28 437.505
CUSAT 1 14 Feb 23:42:10 23:48:14 29° 92° (E) 23:54:52 437.405
ISS 14 Feb 23:44:59 23:47:38 23° 234° (SW) 23:50:18 145.825
TISAT 1 14 Feb 23:53:44 23:56:54 20° 78° (ENE) 00:00:03 437.305
POLYITAN 1 14 Feb 23:53:53 23:56:37 17° 282° (WNW) 23:59:24 437.675
SRMSAT 14 Feb 23:54:16 23:57:32 15° 168° (SSE) 00:00:48 437.500
QB50P2 14 Feb 23:54:24 23:57:01 16° 282° (WNW) 23:59:38 145.880/145.840
JUGNU 14 Feb 23:55:38 00:01:05 36° 160° (SSE) 00:06:32 437.505
SPROUT 15 Feb 00:04:08 00:08:25 70° 257° (WSW) 00:12:42 437.525
VELOX 1 15 Feb 00:04:58 00:07:42 16° 258° (WSW) 00:10:25 145.980
UKube-1 15 Feb 00:05:37 00:08:22 17° 257° (WSW) 00:11:07 .
JAS-2 15 Feb 00:19:20 00:21:39 13° 105° (ESE) 00:24:00 435.910
Gurwin Techsat 1B 15 Feb 00:51:00 00:53:55 15° 103° (ESE) 00:56:51 435.225
SWISSCUBE 15 Feb 00:51:10 00:54:12 17° 77° (ENE) 00:57:12 437.505
DANDE 15 Feb 00:59:52 01:06:24 77° 94° (E) 01:14:29 436.750
Cosmos 2491 15 Feb 01:01:05 01:07:07 20° 87° (E) 01:13:07 435.465 / 435.565
SO-50 15 Feb 01:07:52 01:10:47 16° 112° (ESE) 01:13:44 436.795
Oscar 19 15 Feb 01:13:36 01:18:42 77° 282° (WNW) 01:23:50 437.125/150
YUBILEINY 15 Feb 01:20:11 01:27:12 27° 93° (E) 01:34:11 435.215
CUSAT 1 15 Feb 01:23:40 01:30:08 35° 277° (W) 01:37:18 437.405
ITUPSAT 1 15 Feb 01:29:19 01:33:54 47° 78° (ENE) 01:38:27 437.325
TISAT 1 15 Feb 01:29:47 01:32:18 15° 258° (WSW) 01:34:49 437.305
BEESAT 15 Feb 01:34:03 01:38:43 57° 78° (ENE) 01:43:23 436.000
SRMSAT 15 Feb 01:42:02 01:47:18 31° 161° (SSE) 01:52:34 437.500
JUGNU 15 Feb 01:44:11 01:50:12 84° 338° (NNW) 01:56:13 437.505
BEESAT 3 15 Feb 01:52:38 01:56:19 41° 68° (ENE) 02:00:00 437.485
JAS-2 15 Feb 02:01:48 02:06:26 34° 282° (WNW) 02:11:16 435.910
BEESAT 2 15 Feb 02:26:34 02:30:29 75° 68° (ENE) 02:34:25 435.950
SWISSCUBE 15 Feb 02:27:53 02:31:43 24° 257° (WSW) 02:35:33 437.505
Gurwin Techsat 1B 15 Feb 02:28:49 02:33:35 35° 283° (WNW) 02:38:22 435.225
AO-7 15 Feb 02:29:58 02:36:42 28° 107° (ESE) 02:43:26 29.400- 29.500
ITAMSAT 1 15 Feb 02:34:27 02:39:37 68° 283° (WNW) 02:44:48 435.822/435.867
SO-50 15 Feb 02:47:03 02:51:01 27° 293° (WNW) 02:55:03 436.795
DANDE 15 Feb 02:48:10 02:49:40 11° 280° (W) 02:51:15 436.750
STARS 15 Feb 02:51:25 02:54:47 21° 78° (ENE) 02:58:08 437.465
Cosmos 2491 15 Feb 02:55:09 03:03:31 50° 267° (W) 03:11:58 435.465 / 435.565
YUBILEINY 15 Feb 03:15:43 03:23:35 38° 273° (W) 03:31:31 435.215
Cosmos 2504 15 Feb 03:15:49 03:23:00 34° 92° (E) 03:30:30 435.465 / 435.565
M-CUBED/EXP-1 PRIME 15 Feb 03:21:23 03:24:43 25° 107° (ESE) 03:28:16 437.505
KKS-1 15 Feb 03:22:06 03:26:32 59° 258° (WSW) 03:30:55 437.445
AUBIESAT-1 15 Feb 03:26:19 03:29:34 23° 107° (ESE) 03:33:01 437.475
HORYU 2 15 Feb 03:26:35 03:30:04 22° 102° (ESE) 03:33:33 437.375
AIST 2 15 Feb 03:27:48 03:31:05 23° 68° (ENE) 03:34:23 435.215
SRMSAT 15 Feb 03:30:36 03:36:37 83° 159° (SSE) 03:42:37 437.500
JUGNU 15 Feb 03:34:05 03:39:21 32° 341° (NNW) 03:44:38 437.505
MOZHAYETS 4 15 Feb 03:55:40 04:00:13 70° 259° (W) 04:04:44
AO-7 15 Feb 04:21:37 04:29:06 39° 286° (WNW) 04:36:38 29.400- 29.500
STARS 15 Feb 04:28:08 04:30:54 16° 258° (WSW) 04:33:39 437.465
CUBESAT XI-V 15 Feb 04:51:57 04:56:10 34° 78° (ENE) 05:00:23 437.345
CUTE-I 15 Feb 04:55:20 04:57:58 14° 103° (ESE) 05:00:34 437.470
M-CUBED/EXP-1 PRIME 15 Feb 04:57:28 04:59:08 12° 284° (WNW) 05:00:52 437.505
AUBIESAT-1 15 Feb 05:01:53 05:03:54 14° 284° (WNW) 05:06:00 437.475
HORYU 2 15 Feb 05:03:36 05:06:22 16° 282° (WNW) 05:09:08 437.375
AIST 2 15 Feb 05:07:33 05:09:20 13° 248° (WSW) 05:11:06 435.215
Cosmos 2504 15 Feb 05:09:06 05:16:00 30° 274° (W) 05:23:15 435.465 / 435.565
Cubesat XI-IV 15 Feb 05:09:28 05:13:28 21° 103° (ESE) 05:17:27 437.490
O/OREOS (USA 219) 15 Feb 05:14:30 05:18:21 28° 104° (ESE) 05:22:10 437.305
LilacSat-2 15 Feb 05:15:35 05:17:53 15° 102° (ESE) 05:20:11 437.200
SRMSAT 15 Feb 05:20:26 05:25:53 36° 340° (NNW) 05:31:19 437.500
JUGNU 15 Feb 05:25:43 05:28:57 15° 348° (NNW) 05:32:11 437.505
GOMX 1 15 Feb 05:57:19 05:58:30 11° 103° (ESE) 05:59:42 467.674
STRAND 1 15 Feb 06:10:52 06:15:06 26° 77° (ENE) 06:19:18 437.568
HO-68 15 Feb 06:31:43 06:32:51 10° 106° (ESE) 06:33:58 435.675
CUBESAT XI-V 15 Feb 06:31:50 06:33:16 11° 258° (WSW) 06:34:44 437.345
CUTE-I 15 Feb 06:32:46 06:37:42 38° 283° (WNW) 06:42:39 437.470
DOVE 4 15 Feb 06:45:33 06:48:58 24° 102° (ESE) 06:52:30 437.250
GONETS M04 15 Feb 06:47:33 06:53:28 20° 93° (E) 06:59:21
Cubesat XI-IV 15 Feb 06:48:55 06:53:15 25° 283° (WNW) 06:57:36 437.490
LilacSat-2 15 Feb 06:49:37 06:51:56 16° 281° (W) 06:54:17 437.200
PHONESAT 2.4 15 Feb 06:54:24 06:57:38 72° 222° (SW) 07:00:51 2401.200-2431.200
O/OREOS (USA 219) 15 Feb 06:56:02 06:57:28 11° 285° (WNW) 06:58:54 437.305
BRITE-PL 15 Feb 06:56:16 07:00:00 32° 282° (WNW) 07:03:42 437.365/2234.400
PRISM 15 Feb 07:09:28 07:13:08 31° 78° (ENE) 07:16:48 437.425
SEEDS 15 Feb 07:11:26 07:12:45 11° 102° (ESE) 07:14:04 437.485
SRMSAT 15 Feb 07:11:57 07:15:32 16° 347° (NNW) 07:19:06 437.500
CUTE 1.7 + AOD 2 15 Feb 07:13:30 07:16:30 19° 102° (ESE) 07:19:31 437.475
GOMX 1 15 Feb 07:32:56 07:36:20 25° 281° (W) 07:39:48 467.674
AO-85 15 Feb 07:48:16 07:52:58 53° 292° (WNW) 07:58:03 145.980
STRAND 1 15 Feb 07:50:34 07:53:59 18° 257° (WSW) 07:57:24 437.568
CANX-2 15 Feb 07:58:16 08:02:33 78° 282° (WNW) 08:06:52 2200.000
Cosmos 2499 15 Feb 08:00:05 08:07:07 30° 92° (E) 08:14:25 435.465 / 435.565
CUBEBUG 2 15 Feb 08:03:32 08:06:55 21° 103° (ESE) 08:10:23 437.445
PCSat 15 Feb 08:12:51 08:18:16 86° 109° (ESE) 08:23:40 145.827
HO-68 15 Feb 08:13:01 08:20:09 73° 284° (WNW) 08:27:19 435.675
COMPASS 1 15 Feb 08:19:23 08:23:36 84° 99° (E) 08:27:49 437.405
DOVE 4 15 Feb 08:24:48 08:26:29 12° 281° (W) 08:28:11 437.250
ZACube-1 15 Feb 08:33:00 08:36:30 23° 102° (ESE) 08:40:03 437.345
CINEMA 3 15 Feb 08:34:39 08:38:35 35° 281° (W) 08:42:41 145.822/145.860
FUNcube-1 15 Feb 08:38:49 08:42:29 26° 102° (ESE) 08:46:14 145.935
GONETS M04 15 Feb 08:41:39 08:49:54 49° 273° (W) 08:58:09
AAUSAT CUBESAT 2 15 Feb 08:42:33 08:46:39 56° 282° (WNW) 08:50:46 437.432
SEEDS 15 Feb 08:44:34 08:48:12 28° 281° (WNW) 08:51:50 437.485
RS-15 15 Feb 08:48:50 08:59:27 59° 111° (ESE) 09:10:14 29.354- 29.394
CUTE 1.7 + AOD 2 15 Feb 08:49:15 08:52:05 17° 282° (WNW) 08:54:56 437.475
Oscar 11 15 Feb 09:02:24 09:06:45 84° 100° (E) 09:11:08 145.826/435.025
JUGNU 15 Feb 09:06:57 09:09:15 12° 9° (N) 09:11:32 437.505
DELFI C3 15 Feb 09:10:56 09:14:48 47° 101° (E) 09:18:42 145.870
UWE-3 15 Feb 09:27:41 09:31:43 36° 281° (WNW) 09:35:54 435.000/436.395/437.385
HUMSAT D 15 Feb 09:37:16 09:41:14 37° 102° (ESE) 09:45:13 437.325/437.525
CUBEBUG 2 15 Feb 09:40:27 09:43:17 17° 281° (W) 09:46:12 437.445
UNISAT 6 15 Feb 09:44:16 09:48:25 40° 79° (E) 09:52:28 437.425
AIST 1 15 Feb 09:50:53 09:55:04 43° 274° (W) 09:59:14
Cosmos 2499 15 Feb 09:52:28 09:59:50 35° 274° (W) 10:07:34 435.465 / 435.565
ESTCUBE 1 15 Feb 10:07:38 10:09:52 14° 102° (ESE) 10:12:06 437.505/2401.250
ZACube-1 15 Feb 10:09:55 10:12:31 16° 281° (WNW) 10:15:11 437.345
FUNcube-1 15 Feb 10:16:18 10:18:29 14° 281° (W) 10:20:43 145.935
POLYITAN 1 15 Feb 10:24:20 10:27:43 23° 78° (ENE) 10:31:03 437.675
QB50P2 15 Feb 10:24:36 10:28:04 24° 78° (ENE) 10:31:29 145.880/145.840
ANTELSAT 15 Feb 10:29:05 10:33:17 43° 258° (WSW) 10:37:22 437.575/2403.000
TIGRISAT 15 Feb 10:33:59 10:38:06 39° 258° (WSW) 10:42:07 435.000
UKube-1 15 Feb 10:37:34 10:41:10 26° 102° (ESE) 10:44:45 .
VELOX 1 15 Feb 10:39:17 10:43:10 31° 102° (ESE) 10:47:04 145.980
DUCHIFAT 1 15 Feb 10:51:46 10:55:54 52° 79° (ENE) 11:00:00 145.980
POPSAT HIP 1 15 Feb 10:52:02 10:56:14 58° 78° (ENE) 11:00:23 437.405
NANOSAT C BR1 15 Feb 10:52:59 10:57:10 58° 79° (ENE) 11:01:19 145.865
JUGNU 15 Feb 10:54:18 10:58:59 24° 17° (NNE) 11:03:40 437.505
SRMSAT 15 Feb 10:54:22 10:56:05 11° 7° (N) 10:57:49 437.500
AISAT 15 Feb 10:56:35 11:00:53 61° 102° (ESE) 11:05:13 437.250
CUBEBUG 1 15 Feb 10:59:17 11:03:26 49° 102° (ESE) 11:07:36 437.445
DX 1 15 Feb 10:59:25 11:03:43 71° 103° (ESE) 11:08:01 434.975-435.025
RS-15 15 Feb 11:03:41 11:11:27 22° 293° (WNW) 11:19:27 29.354- 29.394
QB50P1 15 Feb 11:04:01 11:08:18 89° 259° (W) 11:12:32 145.935-145.965
ISS 15 Feb 11:18:16 11:21:21 38° 305° (NW) 11:24:24 145.825
50 SAT 15 Feb 11:22:21 11:25:51 35° 281° (WNW) 11:29:21 437.505
BUGSAT 1 15 Feb 11:28:00 11:32:15 79° 78° (ENE) 11:36:27 437.445
ESTCUBE 1 15 Feb 11:42:38 11:46:24 26° 282° (WNW) 11:50:10 437.505/2401.250
JAS-2 15 Feb 11:52:35 11:55:04 12° 77° (ENE) 11:57:30 435.910
TISAT 1 15 Feb 11:58:53 12:02:14 24° 102° (ESE) 12:05:36 437.305
POLYITAN 1 15 Feb 12:01:06 12:03:15 14° 258° (WSW) 12:05:24 437.675
QB50P2 15 Feb 12:01:36 12:03:36 13° 258° (WSW) 12:05:34 145.880/145.840
Oscar 19 15 Feb 12:10:10 12:13:26 17° 77° (ENE) 12:16:41 437.125/150
SPROUT 15 Feb 12:11:50 12:15:58 53° 282° (WNW) 12:20:09 437.525
UKube-1 15 Feb 12:15:10 12:16:57 12° 282° (WNW) 12:18:44 .
VELOX 1 15 Feb 12:18:38 12:19:22 10° 282° (WNW) 12:20:07 145.980
CUSAT 1 15 Feb 12:27:05 12:30:15 54° 83° (E) 12:32:56 437.405
SRMSAT 15 Feb 12:41:40 12:46:04 21° 16° (NNE) 12:50:29 437.500
JUGNU 15 Feb 12:42:24 12:48:12 62° 21° (NNE) 12:54:00 437.505
SWISSCUBE 15 Feb 13:11:54 13:16:10 32° 102° (ESE) 13:20:26 437.505
SO-50 15 Feb 13:20:00 13:23:53 27° 67° (ENE) 13:27:40 436.795
Gurwin Techsat 1B 15 Feb 13:27:26 13:32:28 43° 77° (ENE) 13:37:27 435.225
ITAMSAT 1 15 Feb 13:31:44 13:35:27 20° 77° (ENE) 13:39:07 435.822/435.867
JAS-2 15 Feb 13:31:52 13:39:46 78° 257° (WSW) 13:47:19 435.910
Cosmos 2491 15 Feb 13:32:55 13:41:00 42° 93° (E) 13:48:59 435.465 / 435.565
TISAT 1 15 Feb 13:35:51 13:37:39 13° 282° (WNW) 13:39:27 437.305
BEESAT 3 15 Feb 13:45:31 13:49:17 43° 112° (ESE) 13:53:03 437.485
Oscar 19 15 Feb 13:48:00 13:52:29 30° 257° (WSW) 13:56:57 437.125/150
ITUPSAT 1 15 Feb 13:51:23 13:56:11 86° 281° (WNW) 14:01:00 437.325
YUBILEINY 15 Feb 13:52:17 14:00:46 54° 87° (E) 14:09:11 435.215
DANDE 15 Feb 13:52:30 13:54:45 15° 271° (W) 13:56:45 436.750
BEESAT 15 Feb 13:55:51 14:00:37 73° 282° (WNW) 14:05:24 436.000
BEESAT 2 15 Feb 14:20:30 14:24:29 82° 110° (ESE) 14:28:28 435.950
SRMSAT 15 Feb 14:29:45 14:35:31 53° 21° (NNE) 14:41:18 437.500
JUGNU 15 Feb 14:31:38 14:37:15 47° 201° (SSW) 14:42:52 437.505
SWISSCUBE 15 Feb 14:51:37 14:53:41 13° 283° (WNW) 14:55:46 437.505
AO-7 15 Feb 14:55:12 15:03:07 47° 74° (ENE) 15:10:59 29.400- 29.500
STARS 15 Feb 15:01:50 15:05:39 30° 102° (ESE) 15:09:29 437.465
SO-50 15 Feb 15:01:58 15:04:04 13° 248° (WSW) 15:06:09 436.795
Gurwin Techsat 1B 15 Feb 15:10:19 15:12:06 12° 257° (WSW) 15:13:54 435.225
ITAMSAT 1 15 Feb 15:10:27 15:14:38 25° 257° (WSW) 15:18:49 435.822/435.867
M-CUBED/EXP-1 PRIME 15 Feb 15:23:00 15:26:11 23° 76° (ENE) 15:29:10 437.505
AIST 2 15 Feb 15:25:56 15:29:34 29° 112° (ESE) 15:33:12 435.215
AUBIESAT-1 15 Feb 15:27:28 15:30:25 21° 76° (ENE) 15:33:11 437.475
Cosmos 2504 15 Feb 15:28:15 15:35:32 43° 86° (E) 15:42:24 435.465 / 435.565
Cosmos 2491 15 Feb 15:30:48 15:37:25 24° 273° (W) 15:44:03 435.465 / 435.565
KKS-1 15 Feb 15:34:50 15:38:56 39° 282° (WNW) 15:43:05 437.445
HORYU 2 15 Feb 15:38:44 15:42:42 32° 78° (ENE) 15:46:38 437.375
YUBILEINY 15 Feb 15:51:39 15:57:09 18° 267° (W) 16:02:40 435.215
MOZHAYETS 4 15 Feb 16:12:34 16:16:55 41° 282° (WNW) 16:21:17
